Voltar ao catálogo

STARLINK-5444

AtivoComunicaçõesVLEO
NORAD 54768·PAYLOAD·🇺🇸 United States

Lançado Dec 17, 2022 de Cape Canaveral Space Force Station

Loading…

Próximas Passagens (próximas 24 horas)

TLE

AtualizadoSource: CelesTrak SupGP

Época: Sep 14, 2026, 22:23 UTC

1 54768C 22175L   26257.93312500  .00031179  00000+0  10026-2 0  2570
2 54768  53.1574 245.7777 0001296  96.6321  15.5847 15.31686022    16

Acompanhe STARLINK-5444 em tempo real com AllMySat

Download on the App Store